Regional Weather Roundup
Issued by NWS

Home | Current Version | Previous Version | Graphics & Text | Print | Product List | Glossary On
Versions: 1 2 3 4 5 6 7 8 9 10 11 12 13 14 15 16 17 18 19 20 21 22 23 24 25 26 27 28 29 30 31 32 33 34 35 36 37 38 39 40 41 42 43 44 45 46 47 48 49 50
000
ASUS45 KABQ 231201
RWRNM
WEATHER ROUNDUP FOR NEW MEXICO
NATIONAL WEATHER SERVICE ALBUQUERQUE NM
600 AM MDT WED APR 23 2014

NOTE: "FAIR" MEANS FEW OR NO CLOUDS BELOW 12,000 FEET AGL WITH NO
       SIGNIFICANT WEATHER OR OBSTRUCTIONS TO VISION.

      THIS PRODUCT IS RELEASED AS TWO VERSIONS.  ONE VERSION NEAR
      THE TOP OF THE HOUR CONTAINING PRELIMINARY DATA FROM ALBUQUERQUE
      AND OTHER STATIONS.  A FINAL VERSION WITH ADDITIONAL DATA IS
      ISSUED ABOUT 10 MINUTES AFTER THE HOUR.

NMZ501-503-504-510>518-231300-
NORTHWEST PLATEAU/NORTHCENTRAL MOUNTAINS

CITY           SKY/WX    TMP DP  RH WIND       PRES   REMARKS
FARMINGTON     CLEAR     53  26  35 W5        29.81S
6HR MIN TEMP:  53; 6HR MAX TEMP:  62;

SANTA FE       MOCLDY    49  30  48 SW5       29.87S
6HR MIN TEMP:  47; 6HR MAX TEMP:  63;

TAOS           MOCLDY    48  25  40 CALM      29.93R

$$
NMZ402-403-502-505>509-231300-
WESTCENTRAL MOUNTAINS/SOUTHWEST MOUNTAINS

CITY           SKY/WX    TMP DP  RH WIND       PRES   REMARKS
GALLUP         CLEAR     49  27  42 SW9       29.90S
6HR MIN TEMP:  48; 6HR MAX TEMP:  57;

SILVER CITY    MOCLDY    57  27  30 NW12      29.94S

$$
NMZ407-409-411-412-231300-
SOUTHERN DESERTS

CITY           SKY/WX    TMP DP  RH WIND       PRES   REMARKS
DEMING         CLOUDY    60  28  29 W6        29.87R
6HR MIN TEMP:  58; 6HR MAX TEMP:  70;

HOLLOMAN AFB   PTCLDY    65  33  30 S3        29.83R
T OR C         MOCLDY    61  25  25 SW8       29.83S
6HR MIN TEMP:  58; 6HR MAX TEMP:  69;


$$
NMZ519>523-231300-
CENTRAL VALLEYS/CENTRAL HIGHLANDS

CITY           SKY/WX    TMP DP  RH WIND       PRES   REMARKS
ALBUQUERQUE    PTCLDY    60  27  28 W6        29.86R
6HR MIN TEMP:  58; 6HR MAX TEMP:  67;

DOUBLE EAGLE   CLEAR     50  27  40 W9        29.88R
CLINES CORNERS PTCLDY    49  30  48 W14       29.89F
6HR MIN TEMP:  47; 6HR MAX TEMP:  56;

BELEN          FAIR      55  27  34 W12       29.86R
6HR MIN TEMP:  55; 6HR MAX TEMP:  63;

SOCORRO        NOT AVBL

$$
NMZ524>526-539-540-231300-
SOUTHCENTRAL MOUNTAINS

CITY           SKY/WX    TMP DP  RH WIND       PRES   REMARKS
RUIDOSO        NOT AVBL

$$
NMZ527>531-231300-
NORTHEAST HIGHLANDS/NORTHEAST PLAINS

CITY           SKY/WX    TMP DP  RH WIND       PRES   REMARKS
LAS VEGAS      MOCLDY    46  37  71 S12       29.87F
6HR MIN TEMP:  45; 6HR MAX TEMP:  53;

RATON          PTCLDY    47  41  80 SW8       29.82F
6HR MIN TEMP:  45; 6HR MAX TEMP:  54;

CLAYTON        CLEAR     55  39  54 S14       29.80F
6HR MIN TEMP:  53; 6HR MAX TEMP:  60;


$$
NMZ532>537-231300-
EASTCENTRAL PLAINS

CITY           SKY/WX    TMP DP  RH WIND       PRES   REMARKS
TUCUMCARI      MOCLDY    63  42  46 S25G32    29.77S
6HR MIN TEMP:  63; 6HR MAX TEMP:  68;

CANNON AFB     CLOUDY    60  44  55 S12       29.84S
6HR MIN TEMP:  60; 6HR MAX TEMP:  63;

CLOVIS AIRPORT CLOUDY    59  43  55 S15       29.87S

$$
NMZ028-029-538-231300-
SOUTHEAST PLAINS

CITY           SKY/WX    TMP DP  RH WIND       PRES   REMARKS
ROSWELL        CLOUDY    63  46  54 S15       29.80R
6HR MIN TEMP:  63; 6HR MAX TEMP:  70;

CARLSBAD       MOCLDY    62  46  55 S10       29.80R
6HR MIN TEMP:  62; 6HR MAX TEMP:  70;

HOBBS          PTCLDY    63  48  59 SE18G24   29.86


$$



USA.gov is the U.S. government's official web portal to all federal, state and local government web resources and services.